Вернуться в каталог

STARLINK-30506

АктивенСвязьVLEO
NORAD 58072·PAYLOAD·🇺🇸 United States

Запущен Oct 13, 2023 с Cape Canaveral Space Force Station

Loading…

Ближайшие Пролёты (ближайшие 24 часа)

TLE

СвежийSource: CelesTrak SupGP

Эпоха: Sep 14, 2026, 22:20 UTC

1 58072C 23158X   26257.93104167  .00034155  00000+0  12370-2 0  2573
2 58072  43.0014  38.4583 0001569 272.8353 321.7693 15.27563567    17

Отслеживайте STARLINK-30506 в реальном времени с AllMySat

Download on the App Store